ONEWEB-0309, 49095

Orbit data source: Space-Track

ONEWEB-0309, 49095 is a payload satellite owned by One Web (NAA) (UK) in LEO that was launched on Sat, 21 Aug 2021 UTC via a SOYUZ-2-1B launch vehicle from the Tyuratam Missile And Space Complex (TTMTR). Payload-class satellites include a variety of spacecraft equipped with specific instruments for various scientific and technological missions. These include communications satellites like Starlink; space stations such as the ISS; scientific satellites like the Hubble; Earth observation satellites from companies like Planet Labs, Umbra, and HawkEye 360; GPS; miniature CubeSats for education and research; and military/defense satellites.

Loading next visibility...
Identifier
49095, 2021-075W
Orbit
LEO
Country
Flag of UKUK
Related business
Manufacturer
One Web
Mission
Operational Commercial Communications
Bus & Motor
ARROW, Unknown motor
Mass
148 kg wet, ~140 kg dry
Launch date (UTC)
2021-08-21 (5 years ago)
Launch vehicle
SOYUZ-2-1B
Launch site
Tyuratam Missile And Space Complex (TTMTR)
Object type
Payload
Rocket body
Debris
Shape & HBR
Trap Box + 2 Pan, 6.7 m
Radar Cross Section
3.464 m², Large (>1 m²)

Expand to show TLE details & history
Last TLE update: 8 hours ago

TLE from 8 hours ago
0 ONEWEB-0309
1 49095U 21075W   26130.19687654  .00000135  00000-0  31552-3 0  9998
2 49095  87.9170  13.4153 0001358  81.0939 279.0346 13.17649156228573
Epoch: 2026-05-10T04:43Z
TLE epoch observation values (Epoch: 2026-05-10T04:43:30.133Z)
Latitude
-0.00002°
Longitude
74.53632°
Altitude
1,196.45 km
Speed
7.256 km/s
True Right ascension
00h 53m 39s
True Declination
0° 00' 00"
Sunlit
Object was in daylight at epoch
Visualization orbit readout
Latitude
Unknown
Longitude
Unknown
Altitude
Unknown
Speed
Unknown
Apparent Right ascension
Unknown
Apparent Declination
Unknown
Sunlit
N/A
Visualization observer readout
Local Sidereal Time
21:22:14
Azimuth
Unknown
Elevation
Unknown
Doppler factor
Unknown
Orbital elements
Apogee altitude
1,191.849 km
Perigee altitude
1,189.794 km
Semi-major axis
7,568.958 km
Eccentricity
0.00014
Inclination
87.917°
RAAN
13.4153°
Arg. of periapsis
81.0939°
True anomaly
279.01923°
Mean anomaly
279.0346°
Eccentric anomaly
279.02692°
Mean motion
3.29601 °/min
Orbital period
109.22 mins
BSTAR
0.00031552
Loading maneuver chart data...
Computing Atmospheric mass density...
Loading historical data...
Loading historical data...
Loading historical data...
Loading historical data...
Loading historical data...
Loading historical data...
Loading historical data...

Documentation

Showing up to 5 results
|